Time,TemperatureF,DewpointF,PressureIn,WindDirection,WindDirectionDegrees,WindSpeedMPH,WindSpeedGustMPH,Humidity,HourlyPrecipIn,Conditions,Clouds,dailyrainin,SoftwareType,DateUTC
2013-07-06 00:02:00,72.0,68.0,30.11,NNW,331,0.0,1.0,86,0.00,,,0.28,,2013-07-06 04:02:00,
2013-07-06 00:12:00,72.0,68.0,30.11,NNW,331,0.0,1.0,87,0.00,,,0.28,,2013-07-06 04:12:00,
2013-07-06 00:22:00,72.0,68.0,30.11,NNW,331,0.0,1.0,87,0.00,,,0.28,,2013-07-06 04:22:00,
2013-07-06 00:43:00,72.0,68.0,30.11,NNW,332,1.0,5.0,87,0.00,,,0.28,,2013-07-06 04:43:00,
2013-07-06 00:53:00,73.0,69.0,30.11,NNW,330,3.0,9.0,87,0.00,,,0.28,,2013-07-06 04:53:00,
2013-07-06 01:02:00,73.0,69.0,30.11,NNW,330,3.0,8.0,87,0.00,,,0.28,,2013-07-06 05:02:00,
2013-07-06 01:12:00,73.0,69.0,30.11,NW,326,1.0,9.0,86,0.00,,,0.28,,2013-07-06 05:12:00,
2013-07-06 01:22:00,73.0,69.0,30.11,NW,320,1.0,6.0,86,0.00,,,0.28,,2013-07-06 05:22:00,
2013-07-06 01:33:00,73.0,69.0,30.11,NW,321,1.0,4.0,86,0.00,,,0.28,,2013-07-06 05:33:00,
2013-07-06 01:43:00,73.0,69.0,30.11,NW,321,0.0,3.0,86,0.00,,,0.28,,2013-07-06 05:43:00,
2013-07-06 01:53:00,73.0,69.0,30.11,NW,321,0.0,5.0,86,0.00,,,0.28,,2013-07-06 05:53:00,
2013-07-06 02:02:00,72.0,68.0,30.11,NW,321,0.0,3.0,87,0.00,,,0.28,,2013-07-06 06:02:00,
2013-07-06 02:12:00,72.0,68.0,30.11,NW,321,0.0,2.0,87,0.00,,,0.28,,2013-07-06 06:12:00,
2013-07-06 02:22:00,72.0,68.0,30.11,NW,321,0.0,2.0,88,0.00,,,0.28,,2013-07-06 06:22:00,
2013-07-06 02:34:00,72.0,68.0,30.11,NW,321,0.0,3.0,88,0.00,,,0.28,,2013-07-06 06:34:00,
2013-07-06 02:43:00,71.0,67.0,30.11,NW,321,0.0,3.0,88,0.00,,,0.28,,2013-07-06 06:43:00,
2013-07-06 02:53:00,71.0,68.0,30.11,NW,321,0.0,3.0,89,0.00,,,0.28,,2013-07-06 06:53:00,
2013-07-06 03:02:00,71.0,68.0,30.11,NW,321,1.0,3.0,89,0.00,,,0.28,,2013-07-06 07:02:00,
2013-07-06 03:12:00,71.0,68.0,30.11,NW,321,2.0,5.0,89,0.00,,,0.28,,2013-07-06 07:12:00,
2013-07-06 03:22:00,71.0,68.0,30.11,NW,323,1.0,7.0,89,0.00,,,0.28,,2013-07-06 07:22:00,
2013-07-06 03:33:00,71.0,68.0,30.11,NW,322,0.0,5.0,89,0.00,,,0.28,,2013-07-06 07:33:00,
2013-07-06 03:44:00,71.0,68.0,30.11,NW,323,0.0,4.0,89,0.00,,,0.28,,2013-07-06 07:44:00,
2013-07-06 03:52:00,71.0,68.0,30.11,NW,323,0.0,5.0,89,0.00,,,0.28,,2013-07-06 07:52:00,
2013-07-06 04:02:00,71.0,68.0,30.12,NW,323,0.0,1.0,89,0.00,,,0.28,,2013-07-06 08:02:00,
2013-07-06 04:12:00,70.0,67.0,30.12,NW,322,0.0,3.0,89,0.00,,,0.28,,2013-07-06 08:12:00,
2013-07-06 04:22:00,70.0,67.0,30.12,NW,323,0.0,3.0,89,0.00,,,0.28,,2013-07-06 08:22:00,
2013-07-06 04:34:00,70.0,67.0,30.12,NW,323,1.0,3.0,90,0.00,,,0.28,,2013-07-06 08:34:00,
2013-07-06 04:43:00,70.0,67.0,30.12,NW,323,0.0,3.0,90,0.00,,,0.28,,2013-07-06 08:43:00,
2013-07-06 04:54:00,70.0,67.0,30.12,NW,323,0.0,2.0,90,0.00,,,0.28,,2013-07-06 08:54:00,
2013-07-06 05:02:00,70.0,67.0,30.12,NW,323,2.0,3.0,90,0.00,,,0.28,,2013-07-06 09:02:00,
2013-07-06 05:11:00,70.0,67.0,30.12,NW,323,2.0,5.0,90,0.00,,,0.28,,2013-07-06 09:11:00,
2013-07-06 05:22:00,69.0,66.0,30.12,NW,322,1.0,4.0,90,0.00,,,0.28,,2013-07-06 09:22:00,
2013-07-06 05:33:00,69.0,66.0,30.13,NW,323,2.0,5.0,90,0.00,,,0.28,,2013-07-06 09:33:00,
2013-07-06 05:43:00,69.0,66.0,30.13,NW,323,0.0,4.0,89,0.00,,,0.28,,2013-07-06 09:43:00,
2013-07-06 05:52:00,69.0,66.0,30.13,NW,323,0.0,4.0,89,0.00,,,0.28,,2013-07-06 09:52:00,
2013-07-06 06:02:00,69.0,66.0,30.13,NW,323,0.0,4.0,90,0.00,,,0.28,,2013-07-06 10:02:00,
2013-07-06 06:11:00,69.0,66.0,30.13,NW,322,1.0,3.0,90,0.00,,,0.28,,2013-07-06 10:11:00,
2013-07-06 06:22:00,69.0,66.0,30.13,NW,323,0.0,4.0,90,0.00,,,0.28,,2013-07-06 10:22:00,
2013-07-06 06:33:00,69.0,66.0,30.14,NW,323,0.0,2.0,90,0.00,,,0.28,,2013-07-06 10:33:00,
2013-07-06 06:42:00,69.0,66.0,30.14,NW,322,0.0,5.0,90,0.00,,,0.28,,2013-07-06 10:42:00,
2013-07-06 06:53:00,69.0,66.0,30.14,NW,322,2.0,4.0,90,0.00,,,0.28,,2013-07-06 10:53:00,
2013-07-06 07:01:00,69.0,66.0,30.14,NW,325,0.0,5.0,89,0.00,,,0.28,,2013-07-06 11:01:00,
2013-07-06 07:11:00,69.0,66.0,30.14,NW,325,1.0,3.0,89,0.00,,,0.28,,2013-07-06 11:11:00,
2013-07-06 07:22:00,70.0,66.0,30.14,NW,325,1.0,3.0,88,0.00,,,0.28,,2013-07-06 11:22:00,
2013-07-06 07:33:00,70.0,66.0,30.15,NW,325,0.0,4.0,88,0.00,,,0.28,,2013-07-06 11:33:00,
2013-07-06 07:43:00,70.0,66.0,30.14,NW,325,1.0,4.0,87,0.00,,,0.28,,2013-07-06 11:43:00,
2013-07-06 07:53:00,71.0,67.0,30.15,NNW,330,1.0,6.0,87,0.00,,,0.28,,2013-07-06 11:53:00,
2013-07-06 08:01:00,71.0,67.0,30.15,NNW,334,1.0,9.0,87,0.00,,,0.28,,2013-07-06 12:01:00,
2013-07-06 08:12:00,71.0,67.0,30.15,NNW,338,2.0,5.0,86,0.00,,,0.28,,2013-07-06 12:12:00,
2013-07-06 08:22:00,71.0,66.0,30.15,NNW,341,0.0,5.0,85,0.00,,,0.28,,2013-07-06 12:22:00,
2013-07-06 08:33:00,72.0,67.0,30.15,NNW,335,1.0,7.0,85,0.00,,,0.28,,2013-07-06 12:33:00,
2013-07-06 08:43:00,72.0,67.0,30.15,NNW,334,0.0,4.0,85,0.00,,,0.28,,2013-07-06 12:43:00,
2013-07-06 08:52:00,72.0,67.0,30.15,NNW,334,1.0,4.0,85,0.00,,,0.28,,2013-07-06 12:52:00,
2013-07-06 09:01:00,72.0,67.0,30.15,NW,326,2.0,6.0,84,0.00,,,0.28,,2013-07-06 13:01:00,
2013-07-06 09:12:00,73.0,68.0,30.15,NNW,327,3.0,9.0,83,0.00,,,0.28,,2013-07-06 13:12:00,
2013-07-06 09:22:00,73.0,68.0,30.16,NNW,329,2.0,5.0,83,0.00,,,0.28,,2013-07-06 13:22:00,
2013-07-06 09:43:00,74.0,68.0,30.16,NNW,335,3.0,9.0,81,0.00,,,0.28,,2013-07-06 13:43:00,
2013-07-06 09:52:00,75.0,68.0,30.16,NNW,329,5.0,7.0,80,0.00,,,0.28,,2013-07-06 13:52:00,
2013-07-06 10:02:00,75.0,68.0,30.15,North,355,1.0,5.0,79,0.00,,,0.28,,2013-07-06 14:02:00,
2013-07-06 10:12:00,76.0,69.0,30.15,NNW,340,3.0,7.0,78,0.00,,,0.28,,2013-07-06 14:12:00,
2013-07-06 10:22:00,76.0,68.0,30.15,NNW,333,0.0,7.0,77,0.00,,,0.28,,2013-07-06 14:22:00,
2013-07-06 10:34:00,77.0,68.0,30.14,NNW,333,1.0,4.0,75,0.00,,,0.28,,2013-07-06 14:34:00,
2013-07-06 10:42:00,78.0,69.0,30.15,NNW,329,2.0,6.0,73,0.00,,,0.28,,2013-07-06 14:42:00,
2013-07-06 10:53:00,78.0,68.0,30.15,NNW,336,0.0,4.0,72,0.00,,,0.28,,2013-07-06 14:53:00,
2013-07-06 11:02:00,79.0,69.0,30.15,NNW,340,1.0,4.0,71,0.00,,,0.28,,2013-07-06 15:02:00,
2013-07-06 11:12:00,79.0,69.0,30.15,NNW,339,0.0,5.0,71,0.00,,,0.28,,2013-07-06 15:12:00,
2013-07-06 11:22:00,79.0,69.0,30.15,North,355,0.0,5.0,71,0.00,,,0.28,,2013-07-06 15:22:00,
2013-07-06 11:33:00,79.0,69.0,30.15,North,355,0.0,5.0,71,0.00,,,0.28,,2013-07-06 15:33:00,
2013-07-06 11:43:00,79.0,68.0,30.15,NNE,13,0.0,5.0,70,0.00,,,0.28,,2013-07-06 15:43:00,
2013-07-06 11:53:00,79.0,68.0,30.15,NNE,13,0.0,3.0,70,0.00,,,0.28,,2013-07-06 15:53:00,
2013-07-06 12:08:00,80.0,68.0,30.15,NNE,14,0.0,4.0,67,0.00,,,0.28,,2013-07-06 16:08:00,
2013-07-06 12:16:00,80.0,68.0,30.15,North,5,0.0,5.0,67,0.00,,,0.28,,2013-07-06 16:16:00,
2013-07-06 12:28:00,81.0,69.0,30.15,North,360,0.0,4.0,66,0.00,,,0.28,,2013-07-06 16:28:00,
2013-07-06 12:46:00,82.0,68.0,30.15,North,5,0.0,1.0,63,0.00,,,0.28,,2013-07-06 16:46:00,
2013-07-06 12:56:00,82.0,69.0,30.14,NNW,330,0.0,6.0,64,0.00,,,0.28,,2013-07-06 16:56:00,
2013-07-06 13:02:00,83.0,70.0,30.14,NNW,329,0.0,3.0,64,0.00,,,0.28,,2013-07-06 17:02:00,
2013-07-06 13:17:00,83.0,67.0,30.14,NNW,329,0.0,2.0,59,0.00,,,0.28,,2013-07-06 17:17:00,
2013-07-06 13:44:00,82.0,68.0,30.14,NNW,336,0.0,7.0,62,0.00,,,0.28,,2013-07-06 17:44:00,
2013-07-06 13:55:00,82.0,69.0,30.13,NNW,336,1.0,4.0,65,0.00,,,0.28,,2013-07-06 17:55:00,
2013-07-06 14:02:00,83.0,69.0,30.13,NNW,333,0.0,6.0,63,0.00,,,0.26,,2013-07-06 18:02:00,
2013-07-06 14:26:00,84.0,68.0,30.12,NW,323,0.0,7.0,59,0.00,,,0.26,,2013-07-06 18:26:00,
2013-07-06 14:36:00,85.0,70.0,30.12,NW,323,2.0,6.0,60,0.00,,,0.26,,2013-07-06 18:36:00,
2013-07-06 14:56:00,85.0,68.0,30.12,NW,325,0.0,6.0,57,0.00,,,0.26,,2013-07-06 18:56:00,
2013-07-06 15:03:00,86.0,68.0,30.12,NW,324,0.0,3.0,56,0.00,,,0.26,,2013-07-06 19:03:00,
2013-07-06 15:25:00,85.0,68.0,30.11,NW,315,1.0,5.0,56,0.00,,,0.26,,2013-07-06 19:25:00,
2013-07-06 15:32:00,86.0,69.0,30.11,NW,321,1.0,6.0,57,0.00,,,0.26,,2013-07-06 19:32:00,
2013-07-06 15:46:00,85.0,69.0,30.11,NW,324,2.0,5.0,58,0.00,,,0.26,,2013-07-06 19:46:00,
2013-07-06 15:54:00,85.0,69.0,30.10,NNW,335,1.0,4.0,58,0.00,,,0.26,,2013-07-06 19:54:00,
2013-07-06 16:26:00,86.0,69.0,30.09,WNW,294,1.0,7.0,57,0.00,,,0.26,,2013-07-06 20:26:00,
2013-07-06 16:56:00,85.0,70.0,30.08,NNW,336,0.0,6.0,61,0.00,,,0.26,,2013-07-06 20:56:00,
2013-07-06 17:02:00,85.0,70.0,30.08,WNW,303,0.0,3.0,60,0.00,,,0.11,,2013-07-06 21:02:00,
2013-07-06 17:14:00,85.0,70.0,30.08,NW,318,2.0,5.0,61,0.00,,,0.11,,2013-07-06 21:14:00,
2013-07-06 17:23:00,85.0,70.0,30.08,NW,321,0.0,5.0,61,0.00,,,0.11,,2013-07-06 21:23:00,
2013-07-06 17:35:00,85.0,70.0,30.07,NW,314,1.0,7.0,61,0.00,,,0.11,,2013-07-06 21:35:00,
2013-07-06 17:46:00,85.0,71.0,30.07,NW,317,1.0,5.0,63,0.00,,,0.11,,2013-07-06 21:46:00,
2013-07-06 18:17:00,85.0,70.0,30.05,NW,324,0.0,6.0,62,0.00,,,0.01,,2013-07-06 22:17:00,
2013-07-06 19:02:00,82.0,72.0,30.04,NW,317,0.0,1.0,72,0.00,,,0.01,,2013-07-06 23:02:00,
2013-07-06 19:13:00,81.0,72.0,30.04,NW,317,0.0,0.0,75,0.00,,,0.01,,2013-07-06 23:13:00,
2013-07-06 19:25:00,81.0,72.0,30.04,NW,317,0.0,1.0,74,0.00,,,0.01,,2013-07-06 23:25:00,
2013-07-06 19:33:00,81.0,72.0,30.03,NW,317,0.0,1.0,74,0.00,,,0.01,,2013-07-06 23:33:00,
2013-07-06 19:48:00,81.0,72.0,30.04,NW,317,0.0,0.0,75,0.00,,,0.01,,2013-07-06 23:48:00,
2013-07-06 20:03:00,80.0,72.0,30.03,NW,317,0.0,1.0,76,0.00,,,0.01,,2013-07-07 00:03:00,
2013-07-06 20:26:00,79.0,71.0,30.03,NW,317,0.0,0.0,77,0.00,,,0.01,,2013-07-07 00:26:00,
2013-07-06 20:33:00,79.0,71.0,30.03,NW,317,0.0,0.0,77,0.00,,,0.01,,2013-07-07 00:33:00,
2013-07-06 20:56:00,79.0,71.0,30.04,NW,317,0.0,0.0,77,0.00,,,0.01,,2013-07-07 00:56:00,
2013-07-06 21:02:00,79.0,71.0,30.04,NW,317,0.0,0.0,77,0.00,,,0.01,,2013-07-07 01:02:00,
2013-07-06 21:35:00,79.0,71.0,30.04,NW,317,0.0,0.0,77,0.00,,,0.01,,2013-07-07 01:35:00,
2013-07-06 21:46:00,79.0,71.0,30.04,NW,317,0.0,0.0,77,0.00,,,0.01,,2013-07-07 01:46:00,
2013-07-06 21:55:00,79.0,71.0,30.04,NW,317,0.0,0.0,77,0.00,,,0.01,,2013-07-07 01:55:00,
2013-07-06 23:44:00,77.0,70.0,30.05,NW,317,0.0,0.0,80,0.00,,,0.00,,2013-07-07 03:44:00,